This is the latest recevied weather packets stored in our database for station/object OE2ATN. If no packets are shown the sender has not sent any weather packets the latest 10 day(s).
| Time | Temp. | Humidity | Pressure | Rain* | Wind** | Luminosity | Snow |
|---|---|---|---|---|---|---|---|
| 1777990499 | 20° C | 44% | 1014.3 hPa | 0 mm | - | - | - |
| 1777989900 | 20° C | 45% | 1014.4 hPa | 0 mm | - | - | - |
| 1777989599 | 20° C | 43% | 1014.3 hPa | 0 mm | - | - | - |
| 1777989298 | 19.44° C | 44% | 1014.3 hPa | 0 mm | - | - | - |
| 1777988998 | 20° C | 44% | 1014.3 hPa | 0 mm | - | - | - |
| 1777988698 | 20° C | 43% | 1014.3 hPa | 0 mm | - | - | - |
| 1777988401 | 20.56° C | 43% | 1014.3 hPa | 0 mm | - | - | - |
| 1777988099 | 20.56° C | 42% | 1014.3 hPa | 0 mm | - | - | - |
| 1777987799 | 20.56° C | 40% | 1014.4 hPa | 0 mm | - | - | - |
| 1777987499 | 20.56° C | 41% | 1014.4 hPa | 0 mm | - | - | - |
| 1777987198 | 20.56° C | 42% | 1014.4 hPa | 0 mm | - | - | - |
| 1777986898 | 20.56° C | 40% | 1014.4 hPa | 0 mm | - | - | - |
| 1777986597 | 20.56° C | 42% | 1014.4 hPa | 0 mm | - | - | - |
| 1777986298 | 21.11° C | 40% | 1014.5 hPa | 0 mm | - | - | - |
| 1777985997 | 21.11° C | 42% | 1014.5 hPa | 0 mm | - | - | - |
| 1777985698 | 21.11° C | 41% | 1014.4 hPa | 0 mm | - | - | - |
| 1777985398 | 21.11° C | 40% | 1014.6 hPa | 0 mm | - | - | - |
| 1777985098 | 20.56° C | 40% | 1014.5 hPa | 0 mm | - | - | - |
| 1777984798 | 20.56° C | 40% | 1014.4 hPa | 0 mm | - | - | - |
| 1777984498 | 20.56° C | 40% | 1014.6 hPa | 0 mm | - | - | - |
| 1777984198 | 20.56° C | 39% | 1014.5 hPa | 0 mm | - | - | - |
| 1777983898 | 21.11° C | 42% | 1014.4 hPa | 0 mm | - | - | - |
| 1777983597 | 21.11° C | 38% | 1014.5 hPa | 0 mm | - | - | - |
| 1777983297 | 21.11° C | 38% | 1014.5 hPa | 0 mm | - | - | - |
| 1777982997 | 21.67° C | 35% | 1014.5 hPa | 0 mm | - | - | - |
* Rain latest hour (hover to see other rain measurements)
** Current wind speed in m/s (hover to see current wind gust speed)